Showing default

RELAY 2, 737

Orbit data source: Space-Track

RELAY 2, 737 is a payload satellite owned by GSFC (US) that was launched on Tue, 21 Jan 1964 UTC via a THOR DELTA B launch vehicle from the Air Force Eastern Test Range (AFETR). Payload-class satellites include a variety of spacecraft equipped with specific instruments for various scientific and technological missions. These include communications satellites like Starlink; space stations such as the ISS; scientific satellites like the Hubble; Earth observation satellites from companies like Planet Labs, Umbra, and HawkEye 360; GPS; miniature CubeSats for education and research; and military/defense satellites.

Loading next visibility...
Identifier
737, 1964-003A
Orbit
Active
Last TLE update
2 days ago
Origin
Manufacturer
RCA/East Windsor
Mission
Civil Communications
Bus & Motor
RELAY, Unknown motor
Mass
83 kg wet, 83 kg dry
Launch date (UTC)
1964-01-21 (61 years ago)
Launch vehicle
THOR DELTA B
Launch site
Air Force Eastern Test Range (AFETR)
Object type
Payload
Rocket body
Debris
Shape & HBR
Oct Cyl, 0.81 m
Radar Cross Section
0.652 m², Medium (>0.1 m² and < 1m²)

Expand to show TLE details & history

TLE from 2 days ago
0 RELAY 2
1 00737U 64003A   25187.55780108 -.00000017  00000-0  00000-0 0  9996
2 00737  46.4709  14.7642 2597164 353.6740   3.6281  7.39537248660522
Epoch: 2025-07-06T13:23Z
TLE epoch observation values (Epoch: 2025-07-06T13:23:14.013Z)
Latitude
-0.00003°
Longitude
-110.82399°
Altitude
1,870.787 km
Speed
7.8 km/s
True Right ascension
00h 59m 03s
True Declination
0° 00' 00"
Sunlit
Object was in daylight at epoch
Visualization orbit readout
Latitude
15.32277°
Longitude
-97.79369°
Altitude
2,030.901 km
Speed
7.682 km/s
Apparent Right ascension
03h 54m 20s
Apparent Declination
-10° 59' 58"
Sunlit
Object is in daylight
Visualization observer readout
Local Sidereal Time
19:46:10
Azimuth
77.279° E
Elevation
-31.459°
Doppler factor
1
Orbital elements
Apogee altitude
7,641.533 km
Perigee altitude
1,860.648 km
Semi-major axis
11,129.227 km
Eccentricity
0.25972
Inclination
46.4709°
RAAN
14.7642°
Arg. of periapsis
353.674°
True anomaly
Unknown
Mean anomaly
3.6281°
Eccentric anomaly
Unknown
Mean motion
1.84861 °/min
Orbital period
194.74 mins
BSTAR
0
Loading maneuver chart data...
Loading SW <> Apogee altitude chart data...
Loading historical data...
Loading historical data...
Loading historical data...
Loading historical data...
Loading historical data...
Loading historical data...
Loading historical data...
Other satellites on launch #3 in the year 1964 (1964-01-21 UTC)

RELAY 2 Visibility forecast

Observer location: undefined°, undefined°

Span
Click to sort rows by Start time (UTC) header in descending order
Start Az.
Max El. time (UTC)
Max El. Az.
Max El.
End time (UTC)
End Az.
27 mins2025-07-08 14:08:34.585Z199.345° SSW2025-07-08 14:18:34.585Z123.687° SE37.244°2025-07-08 14:35:34.585Z61.066° ENE
47 mins2025-07-08 17:33:34.585Z266.935° W2025-07-08 17:46:34.585Z355.899° N43.967°2025-07-08 18:20:34.585Z80.825° E
72 mins2025-07-08 21:00:34.585Z295.649° NW2025-07-08 21:23:34.585Z202.988° SW44.975°2025-07-08 22:12:34.585Z130.307° SE
70 mins2025-07-09 00:31:34.585Z294.755° NW2025-07-09 00:59:34.585Z241.003° WSW32.153°2025-07-09 01:41:34.585Z184.434° SSW
|